Regional Weather Roundup
Issued by NWS

Home | Current Version | Previous Version | Graphics & Text | Print | Product List | Glossary On
Versions: 1 2 3 4 5 6 7 8 9 10 11 12 13 14 15 16 17 18 19 20 21 22 23 24 25 26 27 28 29 30 31 32 33 34 35 36 37 38 39 40 41 42 43 44 45 46 47 48 49 50
000
ASUS45 KABQ 081610
RWRNM
NEW MEXICO REGIONAL WEATHER ROUNDUP
NATIONAL WEATHER SERVICE ALBUQUERQUE NM
900 AM MST MON FEB 08 2016

NOTE: "FAIR" MEANS FEW OR NO CLOUDS BELOW 12,000 FEET AGL WITH NO
       SIGNIFICANT WEATHER OR OBSTRUCTIONS TO VISION.

      THIS PRODUCT IS RELEASED AS TWO VERSIONS.  ONE VERSION NEAR
      THE TOP OF THE HOUR CONTAINING PRELIMINARY DATA FROM ALBUQUERQUE
      AND OTHER STATIONS.  A FINAL VERSION WITH ADDITIONAL DATA IS
      ISSUED ABOUT 10 MINUTES AFTER THE HOUR.

NMZ501-503-504-510>518-081700-
NORTHWEST PLATEAU/NORTHCENTRAL MOUNTAINS

CITY           SKY/WX    TMP DP  RH WIND       PRES   REMARKS
FARMINGTON     CLOUDY    27  19  72 NE6       30.52R WCI  20
LOS ALAMOS     CLOUDY    34  18  52 N3        30.45S
SANTA FE       CLOUDY    31  18  58 N6        30.45R WCI  25
TAOS           CLOUDY    27  18  69 N3        30.47F
ANGEL FIRE     FAIR      10   3  76 CALM      30.45R

$$
NMZ402-403-502-505>509-081700-
WESTCENTRAL MOUNTAINS/SOUTHWEST MOUNTAINS

CITY           SKY/WX    TMP DP  RH WIND       PRES   REMARKS
GALLUP         SUNNY     28  21  75 CALM      30.52R
GRANTS         SUNNY     29  17  62 NW9       30.53R WCI  20
SILVER CITY      N/A     48  19  32 NW6       30.43R

$$
NMZ407-409-411-412-081700-
SOUTHERN DESERTS

CITY           SKY/WX    TMP DP  RH WIND       PRES   REMARKS
LORDSBURG      FAIR      43  23  45 SE8       30.41S
DEMING         SUNNY     47  18  31 E14       30.43R
LAS CRUCES     SUNNY     46  18  31 SW6       30.45R
HOLLOMAN AFB   CLOUDY    42  17  35 VRB3      30.46R
ALAMOGORDO     SUNNY     43  18  36 CALM      30.46R
T OR C         SUNNY     43  18  36 N8        30.45R

$$
NMZ519>523-081700-
CENTRAL VALLEYS/CENTRAL HIGHLANDS

CITY           SKY/WX    TMP DP  RH WIND       PRES   REMARKS
ALBUQUERQUE    SUNNY     35  20  54 NW6       30.48R WCI  30
DOUBLE EAGLE   SUNNY     25  19  80 N14       30.48R WCI  13
MORIARTY ARPT  FAIR      33  22  65 N10       30.47S WCI  24
CLINES CORNERS SUNNY     38  20  48 NW10      30.40S WCI  31
BELEN          FAIR      41  19  42 N9        30.50R
SOCORRO        FAIR      36  18  47 N8        30.48R WCI  30

$$
NMZ524>526-539-540-081700-
SOUTHCENTRAL MOUNTAINS

CITY           SKY/WX    TMP DP  RH WIND       PRES   REMARKS
RUIDOSO          N/A     30  16  55 CALM      30.46R

$$
NMZ527>531-081700-
NORTHEAST HIGHLANDS/NORTHEAST PLAINS

CITY           SKY/WX    TMP DP  RH WIND       PRES   REMARKS
LAS VEGAS      SUNNY     37  20  50 NW9       30.38F WCI  30
RATON          CLOUDY    24  19  81 NE7       30.39S WCI  16
CLAYTON        SUNNY     33  19  56 SW7       30.43R WCI  27

$$
NMZ532>537-081700-
EASTCENTRAL PLAINS

CITY           SKY/WX    TMP DP  RH WIND       PRES   REMARKS
TUCUMCARI      SUNNY     35  18  49 W6        30.47S WCI  30
CANNON AFB     SUNNY     35  14  42 VRB2      30.47R
CLOVIS AIRPORT SUNNY     36  12  38 N12       30.47F WCI  27

$$
NMZ028-029-538-081700-
SOUTHEAST PLAINS

CITY           SKY/WX    TMP DP  RH WIND       PRES   REMARKS
ROSWELL        SUNNY     38  14  37 VRB3      30.54R
ARTESIA        SUNNY     37  16  41 CALM      30.56R
CARLSBAD       SUNNY     40  12  32 E5        30.54S
HOBBS          SUNNY     37   9  30 N9        30.54R WCI  31


$$




USA.gov is the U.S. government's official web portal to all federal, state and local government web resources and services.